N9ISN Weather Reports


Display with metric or nautical units.
time (UTC)temp
F
wind
direction
speed
MPH
gust
MPH
rain 1hr
in
rain 24hr
in
rain mn
in
humidity
%
barometer
mb
20260503020051 55 207 5.0 8.0 0.00 0.00 0.00 52 1010.5
20260503014602 55 215 6.0 8.0 0.00 0.00 0.00 51 1010.7
20260503013052 56 219 3.0 6.0 0.00 0.00 0.00 50 1010.8
20260503011554 56 212 3.0 5.0 0.00 0.00 0.00 50 1010.8
20260503010100 57 221 3.0 5.0 0.00 0.00 0.00 47 1010.9
20260503004546 58 220 3.0 6.0 0.00 0.00 0.00 44 1010.9
20260503003055 58 221 5.0 9.0 0.00 0.00 0.00 44 1011.0
20260503001543 59 217 4.0 9.0 0.00 0.00 0.00 44 1011.1
20260503000042 59 238 5.0 9.0 0.00 0.00 0.00 42 1011.3
20260502234541 60 225 3.0 9.0 0.00 0.00 0.00 40 1011.5
20260502233041 60 248 5.0 16.0 0.00 0.00 0.00 41 1011.5
20260502231538 59 234 6.0 16.0 0.00 0.00 0.00 42 1011.8
20260502230036 59 252 7.0 18.0 0.00 0.00 0.00 41 1012.0
20260502224535 60 261 6.0 15.0 0.00 0.00 0.00 40 1012.1
20260502223035 61 303 10.0 17.0 0.00 0.00 0.00 38 1012.2
20260502221533 61 207 10.0 17.0 0.00 0.00 0.00 39 1012.1
20260502220032 60 232 8.0 18.0 0.00 0.00 0.00 40 1012.4
20260502214530 61 252 9.0 18.0 0.00 0.00 0.00 40 1012.4
20260502213039 61 253 8.0 19.0 0.00 0.00 0.00 40 1012.7
20260502211530 61 252 10.0 18.0 0.00 0.00 0.00 37 1012.9
20260502210026 61 260 9.0 14.0 0.00 0.00 0.00 39 1013.0
20260502204524 61 210 10.0 16.0 0.00 0.00 0.00 39 1013.1
20260502203023 61 249 5.0 18.0 0.00 0.00 0.00 38 1013.4
20260502201525 60 255 9.0 15.0 0.00 0.00 0.00 39 1013.7
20260502200019 61 282 11.0 18.0 0.00 0.00 0.00 36 1013.9
20260502194516 60 232 5.0 15.0 0.00 0.00 0.00 35 1014.2
20260502193014 60 291 7.0 18.0 0.00 0.00 0.00 39 1014.3
20260502191511 60 310 9.0 17.0 0.00 0.00 0.00 36 1014.5
20260502190011 60 251 5.0 16.0 0.00 0.00 0.00 39 1014.7
20260502184508 59 275 8.0 13.0 0.00 0.00 0.00 37 1014.9
20260502183004 58 258 10.0 19.0 0.00 0.00 0.00 37 1015.2
20260502181502 59 316 13.0 22.0 0.00 0.00 0.00 39 1015.4
20260502163048 57 303 5.0 15.0 0.00 0.00 0.00 40 1016.6
20260502161545 56 320 9.0 16.0 0.00 0.00 0.00 40 1016.6
20260502151538 54 271 8.0 13.0 0.00 0.00 0.00 43 1017.1
20260502130104 36 208 3.0 5.0 0.00 0.00 0.00 82 1017.7
20260502123058 34 213 4.0 6.0 0.00 0.00 0.00 80 1017.6
20260502121559 33 219 4.0 6.0 0.00 0.00 0.00 81 1017.6
20260502114558 30 242 2.0 3.0 0.00 0.00 0.00 82 1017.5
20260502113054 30 232 2.0 4.0 0.00 0.00 0.00 80 1017.5
20260502111551 31 198 1.0 2.0 0.00 0.00 0.00 78 1017.4
20260502110056 31 198 0.0 1.0 0.00 0.00 0.00 77 1017.5
20260502104545 32 198 0.0 1.0 0.00 0.00 0.00 76 1017.5
20260502103044 32 198 0.0 1.0 0.00 0.00 0.00 76 1017.5
20260502101545 32 198 0.0 2.0 0.00 0.00 0.00 75 1017.5
20260502091533 34 149 1.0 5.0 0.00 0.00 0.00 68 1017.8
20260502071523 35 85 2.0 3.0 0.00 0.00 0.00 65 1018.1
20260502070024 35 85 1.0 2.0 0.00 0.00 0.00 65 1018.3
20260502064538 35 85 1.0 3.0 0.00 0.00 0.00 64 1018.4
20260502063023 36 85 1.0 2.0 0.00 0.00 0.00 66 1018.5
20260502061517 36 85 2.0 3.0 0.00 0.00 0.00 65 1018.5
20260502060015 36 85 1.0 3.0 0.00 0.00 0.00 65 1018.4
20260502054514 37 85 2.0 4.0 0.00 0.00 0.00 65 1018.3
20260502053012 37 85 2.0 4.0 0.00 0.00 0.00 63 1018.4
20260502051509 38 85 2.0 6.0 0.00 0.00 0.00 62 1018.4
20260502050014 38 75 2.0 4.0 0.00 0.00 0.00 63 1018.4
20260502044508 38 67 3.0 4.0 0.00 0.00 0.00 63 1018.3
20260502043054 38 67 3.0 4.0 0.00 0.00 0.00 63 1018.3
20260502041552 38 67 2.0 4.0 0.00 0.00 0.00 63 1018.3
20260502034554 39 67 0.0 1.0 0.00 0.00 0.00 58 1018.2
20260502033050 40 67 0.0 2.0 0.00 0.00 0.00 56 1018.2
20260502031552 40 67 0.0 0.0 0.00 0.00 0.00 54 1018.2
20260502030047 40 67 0.0 1.0 0.00 0.00 0.00 54 1018.1
20260502024550 41 67 1.0 2.0 0.00 0.00 0.00 52 1018.1
20260502023052 41 67 0.0 2.0 0.00 0.00 0.00 52 1018.2
20260502021547 42 67 0.0 2.0 0.00 0.00 0.00 53 1018.1